Date,TemperatureHighF,TemperatureAvgF,TemperatureLowF,DewpointHighF,DewpointAvgF,DewpointLowF,HumidityHigh,HumidityAvg,HumidityLow,PressureMaxIn,PressureMinIn,WindSpeedMaxMPH,WindSpeedAvgMPH,GustSpeedMaxMPH,PrecipitationSumIn
2013-4-1,46.9,43.4,36.0,44.8,39.7,20.0,99,88,49,29.87,29.61,27,12,30,0.07
2013-4-2,43.4,35.7,28.9,26.0,16.7,9.9,69,47,28,30.04,29.86,28,8,41,0.00
2013-4-3,45.2,37.1,30.2,19.0,15.2,12.4,58,41,27,30.25,30.02,23,9,29,0.00
2013-4-4,41.8,36.7,29.2,36.1,25.7,14.0,86,65,44,30.38,30.15,31,13,32,0.00
2013-4-5,51.0,43.3,40.0,43.6,35.8,19.3,94,78,29,30.16,29.70,23,9,25,0.00
2013-4-6,46.4,39.3,33.8,32.9,22.3,9.1,79,53,24,30.38,29.92,20,8,25,0.00
2013-4-7,46.4,40.6,30.4,43.1,36.7,27.5,95,86,73,30.38,30.10,21,9,25,0.00
2013-4-8,52.4,46.7,43.3,46.1,43.5,42.1,96,89,76,30.14,30.02,18,8,22,0.00
2013-4-9,76.3,53.2,43.9,52.5,45.3,42.4,98,80,34,30.13,29.89,19,7,24,0.02
2013-4-10,62.0,48.8,42.8,52.1,45.4,41.8,97,89,68,30.08,29.89,16,5,26,0.18
2013-4-11,52.1,46.6,42.9,48.7,43.6,38.8,98,89,72,30.15,29.84,16,5,20,0.02
2013-4-12,44.5,41.4,38.0,39.6,37.4,32.6,98,87,65,30.16,29.74,26,11,29,0.91
2013-4-13,51.1,43.3,38.5,43.0,38.9,35.8,98,85,60,29.99,29.70,22,9,30,0.02
2013-4-14,55.8,47.4,40.5,43.7,36.2,26.8,94,68,41,30.26,29.98,24,7,25,0.00
2013-4-15,49.5,43.8,38.4,42.2,35.6,26.7,94,74,58,30.45,30.25,10,4,12,0.00
2013-4-16,50.7,46.9,40.7,47.9,44.1,38.6,95,90,84,30.46,30.19,21,8,25,0.00
2013-4-17,62.2,51.3,42.3,48.9,45.4,38.8,98,81,55,30.36,30.15,18,6,22,0.05
2013-4-18,54.0,47.3,38.3,47.3,41.6,36.2,94,81,62,30.44,30.19,16,4,21,0.00
2013-4-19,59.0,52.8,48.8,58.6,52.3,47.3,99,98,94,30.19,29.75,35,14,43,0.02
2013-4-20,56.4,49.9,45.9,56.1,45.3,31.3,100,86,49,30.25,29.70,35,13,41,0.29
2013-4-21,52.1,42.7,33.7,35.4,28.4,21.5,78,57,36,30.70,30.25,19,7,25,0.00
2013-4-22,49.6,43.0,35.4,40.1,34.5,31.4,88,73,52,30.74,30.58,20,8,28,0.00
2013-4-23,44.5,43.0,41.2,42.6,40.1,34.3,94,90,76,30.57,30.05,28,14,35,0.01
2013-4-24,54.5,46.9,43.0,47.3,43.8,40.4,99,89,74,30.05,29.94,29,14,36,0.00
2013-4-25,62.1,51.5,45.4,50.1,42.1,25.9,99,73,39,30.29,29.94,20,8,24,0.02
2013-4-26,56.8,49.5,39.4,46.4,39.1,25.3,92,69,40,30.44,30.29,10,4,14,0.00
2013-4-27,54.2,48.0,40.5,47.0,42.8,38.9,97,83,58,30.44,30.36,11,4,13,0.00
2013-4-28,54.5,48.5,39.5,48.3,44.3,36.7,97,86,52,30.39,30.30,12,4,13,0.00
2013-4-29,55.6,51.1,46.1,49.1,45.5,41.0,97,82,63,30.33,30.28,11,3,13,0.00
2013-4-30,59.3,51.0,41.3,45.6,40.8,32.7,95,70,38,30.39,30.29,10,3,12,0.00